Starlink 35839

operational
NORAD ID: 67169 Int'l Des: 2025-303 Owner: SPXS Country: US Constellation: starlink
LEOCIRCULAR

About Starlink 35839

Description loading...

Live Position

Loading 3D Globe...

Upcoming Passes

Altitude History

Altitude vs Time

uPlot chart will show altitude changes over time

Two-Line Element Set

1 67169C 25303G 25352.76784722 .00683370 00000+0 10096-2 0 3529
2 67169 43.0046 61.7823 0007381 288.0294 262.4922 16.03227096 11
Epoch: Dec 18, 2025 • Age: 54 hours

Current Status

Altitude 265.7 km
Velocity 7.75 km/s
Sub-Earth Point 41.50°N, 53.18°W
Launch Date Dec 17, 2025
Age 2 days
Type internet

Technical Details

Classification Payload
Mass 575.00 kg
Dry Mass 530.00 kg
Total Mass 575.00 kg
Length 0.30 m
Diameter 4.10 m
Span 29.00 m
Shape Box + pan
Manufacturer SPXS
Bus Type Starlink V2MO
Phase Status In Orbit
Owner/State SPXS/US

Large Constellations

Loading constellations...